Atlanta, GA (30308)

3:19 AM EDT on July 07, 2015 (GMT -0400)
Georgia Tech (Midtown) | | Change Station
CLOSE
Current Station
Personal Weather Station
Location: Atlanta, GA
Elevation: 935 ft
Nearby Weather Stations

Elev 935 ft 33.78 °N, 84.40 °W | Updated 1 second ago

Partly Cloudy
Partly Cloudy
73.9 °F
Feels Like 74 °F
N
0.0
Wind Variable Wind from WSW
Gusts 1.0 mph

Today
High -- | Low -- °F
--% Chance of Precip.
Yesterday
High -- | Low -- °F
Precip. -- in
6:33 AM 8:51 PM
Waning Gibbous, 67% visible
Pressure 30.11 in
Visibility 10.0 miles
Clouds Clear
Heat Index 74 °F
Dew Point 68 °F
Humidity 82%
Rainfall 0.00 in
Snow Depth Not available.
UV 0 out of 12
Pollen 3.20 out of 12
Air Quality Not available.
Flu Activity Not available.
METAR KFTY 070653Z 00000KT 10SM CLR 22/21 A3013 RMK AO2 SLP194 T02220206

More Conditions Fewer Conditions

Pressure 30.11 in
Visibility 10.0 miles
Clouds Clear
Heat Index 74 °F
Dew Point 68 °F
Humidity 82%
Rainfall 0.00 in
Snow Depth Not available.
UV 0 out of 12
Pollen 3.20 out of 12
Air Quality Not available.
Flu Activity Not available.
METAR KFTY 070653Z 00000KT 10SM CLR 22/21 A3013 RMK AO2 SLP194 T02220206

More Conditions Fewer Conditions

10-Day Weather Forecast

×

Almanac

Astronomy

Jul. 07, 2015 Rise Set
Actual Time
Civil Twilight
Nautical Twilight
Astronomical Twilight
Moon
Length of Visible Light
Length of Day
Tomorrow will be .
, % of the Moon is Illuminated

Today's Extremes

State Highs State Lows

Community

WunderPhotos

Upload Photos

1,835,756 photos uploaded!

WunderBlogs® & News

Nearby

Air Quality

  Air Quality AQ Index Pollutant
Not available.

Snow Depth

Station Depth Elevation

Earthquake Activity

City Distance Mag. Time & Date
Minimum magnitude displayed is 2.5.

Coastal Water Temperatures

Place Temperature

Stations

Nearby Weather Stations

Station Location Temp. Windchill Dew Point Humidity Wind Precip. Elev Updated Type